Location: Biltmore Gardens
(41.6070°N, 83.4666°W)
Time: 23:29:11
(UTC+00:00)

N. Korean satellite - Visible Passes

Search period start: 05 March 2021 00:00
Search period end: 15 March 2021 00:00
Orbit: 451 x 502 km, 97.2° (Epoch: 05 March)

Date Brightness Start Highest point End Pass type
(mag) Time Alt. Az. Time Alt. Az. Time Alt. Az.
05 Mar 7.1 10:49:39 10° NNE 10:53:11 60° E 10:56:45 10° S visible
06 Mar 8.8 10:23:17 10° NE 10:26:21 26° E 10:29:27 10° SSE visible
07 Mar 9.9 09:57:45 10° ENE 09:59:25 13° E 10:01:06 10° ESE visible
07 Mar 7.1 11:29:32 10° N 11:32:52 38° WNW 11:36:14 10° SW visible
08 Mar 6.5 11:02:35 10° NNE 11:06:10 88° WNW 11:09:47 10° SSW visible
09 Mar 8.1 10:35:58 10° NNE 10:39:21 39° E 10:42:47 10° SSE visible
10 Mar 9.5 10:09:52 10° NE 10:12:27 18° E 10:15:03 10° SE visible
11 Mar 6.6 11:15:31 10° N 11:19:04 58° WNW 11:22:39 10° SSW visible
12 Mar 7.2 10:48:42 10° NNE 10:52:17 59° E 10:55:54 10° S visible
13 Mar 8.9 10:22:18 10° NE 10:25:25 26° E 10:28:32 10° SSE visible
14 Mar 9.9 09:56:43 10° ENE 09:58:26 13° E 10:00:08 10° ESE visible
